Theta_e
312 314 314 315 314 314 313 313 313 313 313 311 312 313 312 312 312 312 313 313 314 313 313 311 310 309 309 309 308 308 308 307 309 311 312 313 312 312 311 311 309 307 306 305
311 313 314 313 311 311 312 313 314 314 313 310 312 312 312 312 313 313 313 313 313 313 313 311 309 307 308 308 307 306 306 306 306 309 310 311 310 310 309 309 307 306 304 303
314 315 311 311 312 312 313 313 313 314 312 311 310 313 313 314 313 312 312 312 311 311 310 310 308 307 305 305 304 304 304 304 304 306 307 307 304 306 306 306 305 303 302 301
312 311 310 310 311 312 314 314 312 311 312 313 310 315 315 315 314 313 313 311 311 310 309 308 306 304 302 301 301 301 302 302 302 303 304 305 304 304 304 303 303 302 300 300
314 311 310 312 312 311 313 309 309 310 312 312 312 313 318 311 314 314 313 310 308 307 306 304 303 301 300 299 299 300 300 300 300 301 302 302 303 304 303 302 302 300 299 299
310 307 308 310 308 308 308 310 310 309 311 315 316 314 316 315 314 313 312 307 306 305 303 302 301 300 300 299 298 297 298 298 298 299 300 300 301 302 302 300 300 299 298 297
316 314 308 306 310 308 309 310 317 322 320 321 310 316 314 314 311 310 307 306 305 304 302 301 300 299 298 298 298 297 297 296 296 297 298 298 299 300 300 300 299 299 298 297
319 321 309 307 311 314 310 315 325 328 327 325 319 323 320 314 310 307 306 305 304 303 302 301 300 299 297 297 296 297 295 295 295 295 295 295 296 297 298 298 298 298 298 297
320 320 310 305 306 311 315 313 313 318 320 321 320 319 316 311 311 308 307 306 303 301 300 299 298 298 297 296 295 295 295 294 294 293 294 294 294 295 295 296 296 297 297 297
317 322 318 314 306 307 310 309 314 317 322 324 320 317 317 314 312 309 307 304 301 299 298 298 297 297 295 295 294 294 293 292 292 292 292 293 293 293 293 294 294 294 295 295
315 317 316 316 314 315 308 312 314 315 319 321 320 316 313 313 309 308 304 300 298 297 296 296 296 296 295 293 293 292 292 291 291 290 290 291 292 292 292 292 292 292 292 293
315 317 319 318 315 312 312 316 316 318 317 314 314 315 310 308 305 301 298 296 296 294 293 293 294 295 295 291 290 291 290 290 289 289 289 290 290 290 291 291 291 291 291 291
314 316 318 319 315 312 313 314 313 314 314 317 319 320 309 303 300 298 296 295 294 294 292 291 292 292 295 291 289 289 289 289 288 288 288 288 288 288 288 288 289 290 290 290
312 314 315 317 316 314 315 315 313 313 314 314 313 311 309 308 305 297 294 294 293 291 290 290 291 291 292 290 287 287 287 286 286 286 287 287 287 287 286 286 287 288 289 289
309 311 311 312 312 312 310 309 307 307 307 308 307 307 306 304 296 293 291 292 294 290 289 289 289 290 290 289 286 286 285 285 285 285 285 286 286 285 284 285 285 285 286 288
303 306 306 304 304 304 305 304 303 302 301 300 301 301 301 294 292 292 291 290 292 290 289 289 289 289 289 289 286 285 285 284 284 283 284 284 284 283 281 283 284 284 284 285
299 302 303 304 302 301 300 300 300 300 299 299 298 297 294 292 291 291 290 290 291 290 289 289 289 288 288 289 287 285 284 284 284 282 282 282 282 281 280 282 282 282 283 283
297 299 300 301 297 300 299 296 296 296 297 297 295 293 292 291 290 291 291 291 290 290 289 289 289 288 287 288 285 285 284 283 283 281 281 281 280 280 279 281 280 280 281 282
295 296 297 295 297 296 294 294 294 295 295 295 293 291 290 290 291 290 290 290 290 290 289 289 288 287 287 285 284 283 283 282 282 281 281 280 279 278 277 278 278 278 279 281
291 294 295 287 294 293 292 291 290 290 293 293 291 290 290 290 290 290 290 290 289 289 289 288 287 286 284 284 282 282 281 281 281 280 280 279 277 276 276 276 276 276 277 278
291 291 294 295 294 293 293 290 290 292 293 293 292 291 289 289 290 290 290 289 289 288 288 287 285 284 283 282 281 280 280 280 280 279 278 277 276 275 274 274 274 274 275 276
290 291 291 287 291 292 290 289 291 292 291 291 290 290 290 290 289 289 289 289 289 288 286 284 283 283 281 280 279 279 279 278 278 277 276 275 274 273 272 272 272 272 273 275
290 291 290 289 291 291 289 291 291 291 291 291 291 291 289 289 288 288 288 287 286 284 283 281 280 279 278 277 277 277 276 276 275 274 273 272 271 271 270 270 271 271 272 273
290 290 290 290 291 291 291 291 291 291 291 291 290 289 288 287 286 285 283 283 281 280 278 277 276 275 275 274 273 272 272 271 270 270 269 269 269 269 268 268 269 270 271 273
291 289 290 290 290 290 290 290 291 290 290 288 284 284 284 282 282 280 279 278 277 275 274 273 272 271 271 269 268 267 266 266 266 266 266 266 266 266 266 266 267 268 269 270
291 290 291 291 290 290 290 290 290 288 287 282 281 281 279 277 277 276 275 274 273 272 270 269 268 267 266 265 264 264 263 263 262 263 263 263 263 264 264 264 265 266 267 269
Wind_Speed
4 9 13 21 21 21 16 16 21 20 18 13 22 21 18 20 24 26 26 21 16 14 13 13 12 14 15 15 16 17 19 21 23 25 27 29 31 28 30 31 30 31 37 40
3 13 17 10 8 12 17 21 22 21 17 7 18 24 24 24 27 24 22 17 14 13 11 10 15 18 16 13 12 14 15 16 20 21 24 24 22 25 26 26 26 30 32 38
18 11 3 13 13 14 18 17 19 21 14 13 13 15 3 9 12 12 11 11 8 9 12 16 16 18 17 19 18 13 10 11 13 15 15 17 14 14 16 22 23 24 27 33
10 6 6 4 9 14 21 15 17 15 7 9 5 10 11 14 15 5 10 9 10 15 17 17 18 23 24 25 19 17 11 5 6 11 14 18 18 20 20 19 21 23 27 30
7 5 3 9 11 6 9 5 5 4 7 6 6 7 4 2 11 5 8 10 15 15 15 18 19 25 26 33 28 24 18 11 3 5 11 12 17 17 16 14 18 23 23 30
13 1 5 6 2 5 0 5 6 2 4 8 9 8 3 2 2 2 10 15 15 16 16 16 20 29 32 31 30 28 24 18 10 4 5 10 14 15 15 14 15 15 19 23
12 11 3 4 8 3 2 4 5 6 5 8 4 4 7 12 4 8 11 11 15 17 16 18 22 25 27 30 30 29 28 25 20 13 8 8 11 14 18 18 16 17 18 21
10 17 6 5 4 3 4 4 4 5 8 17 5 9 5 5 9 16 16 13 13 14 14 16 16 21 23 25 26 26 26 26 26 26 18 11 10 12 15 17 18 18 20 21
5 9 1 5 4 4 5 8 8 13 9 6 10 16 14 7 8 10 10 10 11 11 11 13 17 18 19 21 22 23 23 24 28 26 24 21 16 12 14 17 18 19 20 20
3 6 10 2 1 7 8 2 3 3 6 7 8 18 15 12 8 5 9 10 11 11 12 11 12 15 17 18 19 21 23 25 23 23 23 22 22 18 14 14 17 20 20 20
11 8 15 1 8 16 4 6 5 3 5 6 14 14 15 5 8 7 8 11 12 13 13 13 15 17 18 19 20 20 21 21 23 23 22 23 23 23 22 17 15 18 21 21
7 3 6 19 16 10 11 17 20 13 12 13 17 19 8 11 8 4 4 4 5 8 11 10 12 14 16 19 20 22 23 22 22 21 20 20 21 23 22 22 21 17 17 19
3 3 8 7 7 1 6 7 9 8 2 14 14 4 8 10 9 5 2 0 2 6 9 10 12 13 13 17 18 19 20 22 23 23 22 21 22 23 24 24 23 22 19 18
2 4 8 13 16 15 10 11 8 9 6 11 11 18 19 17 11 1 1 1 1 2 4 6 8 13 14 16 18 18 17 16 18 19 20 20 21 22 24 24 26 26 26 21
1 7 10 13 12 11 13 16 17 17 15 9 15 18 22 17 2 1 2 3 6 4 4 5 7 8 12 15 19 17 18 18 18 18 18 20 20 21 25 23 23 25 25 25
1 8 10 14 16 14 16 17 19 19 20 22 24 26 19 0 2 4 5 6 7 6 7 8 9 11 12 12 14 16 20 22 22 20 19 20 21 23 29 25 25 26 26 25
3 4 7 17 15 10 10 20 17 19 23 23 23 13 5 2 4 7 7 10 12 9 10 12 12 13 14 14 15 15 17 19 18 20 24 22 20 21 23 23 26 29 27 26
14 13 6 11 8 19 15 11 14 17 17 1 3 3 2 4 8 9 9 12 14 11 10 12 15 18 17 16 18 17 17 18 19 24 26 25 23 26 25 22 23 23 25 26
17 14 8 8 15 18 20 17 9 8 14 7 7 3 4 9 9 15 10 14 16 15 14 15 15 18 19 20 20 19 20 21 21 22 21 21 23 27 29 30 30 28 26 27
7 13 10 3 7 10 7 2 2 2 9 8 3 2 7 7 9 13 16 15 14 20 19 16 18 17 19 22 19 20 22 23 24 24 23 22 20 24 26 29 32 32 29 32
2 2 12 12 11 9 5 4 5 5 4 6 6 11 12 10 12 16 16 15 19 20 19 17 18 21 23 24 22 24 25 26 26 25 26 26 27 26 27 29 31 32 31 31
5 5 4 1 4 10 5 6 6 2 9 10 12 15 14 15 15 15 16 16 15 16 15 18 20 22 26 27 24 26 29 30 27 25 26 28 30 30 31 30 32 32 30 30
8 10 6 9 7 4 6 7 10 15 15 17 14 14 14 13 15 14 13 10 9 14 17 18 19 24 27 27 25 27 32 31 30 31 31 32 33 33 32 32 32 30 30 28
16 15 11 13 19 19 19 19 19 20 16 14 11 10 9 11 7 8 8 9 10 16 19 20 21 24 29 29 30 30 35 35 35 36 37 36 35 34 33 32 31 30 29 28
12 5 10 14 20 18 21 18 21 20 14 4 1 1 2 5 7 8 9 11 14 17 19 19 21 25 29 31 32 32 34 35 36 37 37 36 34 33 33 31 30 30 32 32
14 18 12 15 21 15 22 18 13 10 7 2 1 2 1 4 8 9 10 14 16 18 21 22 25 25 28 30 32 33 32 32 33 33 31 30 31 31 31 32 33 34 39 42
Wind_Direction
184 209 216 231 228 246 280 272 271 277 282 297 283 287 285 281 279 278 278 285 290 285 309 334 325 304 289 282 269 253 237 229 215 215 215 216 220 221 223 220 219 216 215 213
174 236 244 275 276 255 259 266 273 277 275 285 287 293 288 272 270 271 282 292 289 303 345 6 5 348 340 328 319 295 261 246 229 220 217 218 229 233 232 229 227 220 215 214
247 266 250 221 240 260 252 262 269 276 306 273 297 284 246 294 266 290 285 283 308 357 23 23 17 22 16 15 360 336 295 256 232 229 229 223 231 229 232 232 231 226 222 219
261 306 245 243 248 247 274 267 267 277 286 283 359 292 293 274 284 334 26 67 60 65 34 23 21 28 33 32 21 12 359 313 235 219 222 224 231 225 229 233 233 226 222 221
273 270 214 223 235 223 272 352 297 282 261 294 240 259 321 260 263 181 60 57 67 45 37 36 33 32 29 29 24 24 26 26 354 258 236 235 242 256 260 245 223 217 223 223
268 254 242 251 182 200 35 299 273 228 267 262 264 222 100 190 276 351 59 77 52 47 39 38 35 35 34 30 26 26 26 26 20 354 273 263 266 263 252 242 234 229 229 227
290 265 249 232 249 133 172 300 299 260 222 268 93 269 273 275 255 4 84 70 52 41 39 33 31 31 31 31 30 28 28 23 15 19 345 299 281 272 268 265 251 242 228 228
288 294 197 163 232 140 175 217 207 277 283 291 285 256 266 296 63 65 55 52 46 40 37 36 36 35 33 31 29 28 29 26 20 22 3 337 307 288 278 272 259 252 251 244
247 253 128 204 155 178 193 216 242 258 268 273 254 270 277 18 169 73 59 50 47 44 43 36 27 27 29 29 28 25 24 22 24 18 13 4 346 318 294 283 270 263 256 254
19 291 222 264 237 225 226 82 219 184 227 231 260 288 273 251 169 70 47 34 29 22 23 28 28 29 24 22 23 23 24 23 14 10 11 7 4 352 325 303 288 279 269 256
192 220 281 239 227 259 188 211 212 199 223 284 278 273 312 344 80 71 26 16 18 20 15 11 13 16 17 18 16 17 17 14 11 9 4 2 1 3 357 344 317 295 286 270
243 251 246 262 264 247 254 263 252 243 250 247 254 256 106 114 107 97 84 45 12 12 9 5 9 9 11 10 12 8 5 7 5 3 1 0 359 356 358 358 348 328 300 284
16 246 275 255 245 176 245 259 272 279 308 250 259 238 110 136 98 61 130 49 30 356 357 357 355 3 6 5 3 1 358 356 355 355 356 356 354 353 348 347 349 345 328 303
336 223 254 275 284 308 285 269 263 248 260 276 254 273 274 284 315 41 280 259 226 337 341 347 347 346 351 355 353 349 348 349 350 349 347 348 349 348 343 343 342 344 341 323
281 268 278 275 280 279 273 275 265 260 268 258 285 288 279 299 331 24 324 254 228 260 320 331 337 331 333 339 341 340 337 339 343 344 345 342 341 342 341 338 335 334 338 334
189 262 288 282 278 259 263 261 264 275 272 264 261 266 287 41 332 255 292 298 278 297 335 336 331 323 318 318 327 321 325 330 333 335 333 333 330 331 340 333 330 331 332 331
276 269 270 270 276 288 261 246 260 267 270 271 275 293 97 185 286 301 305 317 299 295 328 334 329 319 304 296 311 306 309 313 310 313 317 321 320 320 327 323 324 326 324 324
248 245 257 273 299 258 274 314 276 271 281 33 115 129 198 282 300 292 284 286 285 274 299 317 321 318 311 295 303 298 296 299 298 302 307 311 314 316 317 311 311 313 315 314
233 253 258 251 251 287 301 281 253 245 278 182 161 177 329 315 301 291 289 286 281 268 279 296 302 305 304 297 300 292 287 292 283 283 287 294 301 308 310 309 310 310 308 306
225 236 236 167 249 265 306 124 105 122 276 176 189 260 296 299 276 293 310 308 283 274 268 288 301 306 299 300 302 293 287 285 277 283 282 284 283 290 293 298 299 301 300 301
182 204 229 237 250 266 267 148 145 237 293 173 224 266 279 268 265 286 294 289 278 271 281 295 305 301 299 304 305 293 293 287 288 282 281 282 288 287 289 292 292 295 295 294
253 250 206 169 248 267 164 128 222 272 296 296 282 288 285 289 282 284 287 292 293 292 297 305 305 301 302 306 307 298 295 301 299 290 283 282 286 288 290 288 287 287 285 284
251 226 255 215 245 253 186 248 248 285 284 283 285 289 291 282 283 290 298 308 303 305 305 307 304 303 302 306 308 303 301 308 304 298 290 287 288 286 284 282 282 281 280 275
257 257 244 262 254 258 264 263 269 277 276 280 286 290 289 283 302 299 309 310 314 314 313 317 315 309 305 311 310 306 306 307 303 297 294 294 293 291 287 282 278 274 272 272
245 247 241 252 262 273 263 265 268 273 277 271 72 30 311 316 309 316 313 312 311 313 314 314 310 303 302 308 307 307 303 302 299 297 296 296 293 291 289 282 278 274 270 268
245 243 246 256 267 261 272 274 285 262 250 186 262 258 334 331 313 322 311 312 314 316 316 310 307 304 302 304 300 300 301 301 299 297 297 296 294 291 287 286 284 276 275 274